Location: Marcé
(47.5801°N, 0.3280°W)
Time: 07:05:57
(UTC+01:00)

Vanguard 1 Rocket - Pass Details

Date: 05 December 2021
Orbit: 651 x 4224 km, 34.3° (Epoch: 23 January)

Event Time Altitude Azimuth Distance (km) Brightness Sun altitude
Exits shadow 03:43:28 42° 152° (SSE) 3,164 9.9 -47.6°
Drops below altitude 10° 04:00:17 10° 96° (E) 6,659 12.3 -44.9°
Sets 04:06:47 0° 91° (E) 8,085 13.0 -43.8°
